Weather History for Melbourne Airport, VC

Change the Weather History Date:

Thursday, November 28, 2013

  Actual Average Record
Temperature  
Mean Temperature 66 °F -  
Max Temperature 77 °F 73 °F 91 °F (2000)
Min Temperature 53 °F 51 °F 46 °F (1996)
Cooling Degree Days 1    
Growing Degree Days 16 (Base 50)    
Moisture  
Dew Point 47 °F    
Average Humidity 54    
Maximum Humidity 94    
Minimum Humidity 14    
Precipitation  
Precipitation 0.16 in 0.06 in - ()
Sea Level Pressure  
Sea Level Pressure 29.71 in    
Wind  
Wind Speed 15 mph ()    
Max Wind Speed 25 mph    
Max Gust Speed 38 mph    
Visibility 7.9 miles    
Events Rain    
Averages and records for this station are not official NWS values.
T = Trace of Precipitation, MM = Missing Value Source: Averaged Metar Reports

Daily Weather History Graph

Daily Weather History Graph

Search for Another Location

Airport:

Trip Planner

Search our weather history database for the weather conditions in past years. The results will help you decide how hot, cold, wet, or windy it might be!

Date:

Astronomy

Nov. 28, 2013 Rise Set
Actual Time 5:53 AM AEDT 8:23 PM AEDT
Civil Twilight 5:23 AM AEDT 8:54 PM AEDT
Nautical Twilight 4:46 AM AEDT 9:31 PM AEDT
Astronomical Twilight 4:04 AM AEDT 10:13 PM AEDT
Moon 2:31 AM AEDT (11/28) 3:11 PM AEDT (11/28)
Length of Visible Light 15h 30m
Length of Day
14h 29m
Waning Crescent, 28% of the Moon is Illuminated
Nov 28
Waning Crescent
Dec 3
New
Dec 10
First Quarter
Dec 17
Full
Dec 26
Last Quarter

Hourly Weather History & Observations

Time (AEDT) Temp. Dew Point Humidity Pressure Visibility Wind Dir Wind Speed Gust Speed Precip Events Conditions
12:00 AM 74 °F 41 °F 20% 29.72 in 19 mi North 17.3 mph - -   Partly Cloudy
12:00 AM 73.4 °F 41.0 °F 31% 29.71 in - North 17.3 mph - N/A   Clear
12:21 AM 75.2 °F 41.0 °F 29% 29.71 in - North 19.6 mph 38.0 mph N/A   Clear
12:30 AM 75.2 °F 39.2 °F 27% 29.71 in - North 19.6 mph 38.0 mph N/A   Clear
1:00 AM 75 °F 40 °F 18% 29.70 in - North 18.4 mph - -  
1:00 AM 75.2 °F 41.0 °F 29% 29.68 in - North 18.4 mph - N/A   Clear
1:30 AM 75.2 °F 39.2 °F 27% 29.68 in - North 18.4 mph - N/A   Clear
2:00 AM 76 °F 38 °F 15% 29.68 in - North 21.9 mph - -  
2:00 AM 77.0 °F 37.4 °F 24% 29.68 in - North 21.9 mph - N/A   Clear
2:30 AM 75.2 °F 39.2 °F 27% 29.65 in - North 20.7 mph - N/A   Clear
3:00 AM 74 °F 39 °F 17% 29.65 in 19 mi North 21.9 mph - -   Partly Cloudy
3:00 AM 73.4 °F 39.2 °F 29% 29.65 in - North 21.9 mph - N/A   Clear
3:30 AM 73.4 °F 39.2 °F 29% 29.65 in - North 24.2 mph - N/A   Clear
4:00 AM 73 °F 39 °F 18% 29.65 in - North 21.9 mph - -  
4:00 AM 73.4 °F 39.2 °F 29% 29.65 in - North 21.9 mph - N/A   Clear
4:30 AM 71.6 °F 39.2 °F 31% 29.62 in - North 17.3 mph - N/A   Clear
5:00 AM 70 °F 40 °F 23% 29.62 in - North 21.9 mph - -  
5:00 AM 69.8 °F 41.0 °F 35% 29.62 in - North 21.9 mph - N/A   Clear
5:30 AM 69.8 °F 39.2 °F 33% 29.62 in - North 24.2 mph - N/A   Clear
6:00 AM 70 °F 40 °F 23% 29.61 in 19 mi North 24.2 mph - -   Partly Cloudy
6:00 AM 69.8 °F 41.0 °F 35% 29.59 in - North 24.2 mph - N/A   Clear
6:30 AM 71.6 °F 39.2 °F 31% 29.59 in - North 25.3 mph - N/A   Clear
7:00 AM 71 °F 40 °F 21% 29.61 in - North 21.9 mph - -  
7:00 AM 71.6 °F 39.2 °F 31% 29.59 in - North 21.9 mph - N/A   Clear
7:30 AM 71.6 °F 41.0 °F 33% 29.59 in - North 21.9 mph - N/A   Clear
8:00 AM 72 °F 41 °F 21% 29.62 in - North 18.4 mph - -  
8:00 AM 71.6 °F 41.0 °F 33% 29.62 in - North 18.4 mph - N/A   Clear
8:30 AM 75.2 °F 35.6 °F 24% 29.65 in - WSW 10.4 mph - N/A   Clear
9:00 AM 76 °F 36 °F 14% 29.68 in 19 mi West 16.1 mph - -   Mostly Cloudy
9:00 AM 75.2 °F 35.6 °F 24% 29.68 in - West 16.1 mph - N/A   Clear
9:30 AM 75.2 °F 37.4 °F 25% 29.65 in - NNW 15.0 mph - N/A   Clear
10:00 AM 75 °F 40 °F 18% 29.67 in - NNW 9.2 mph - -  
10:00 AM 75.2 °F 39.2 °F 27% 29.65 in 6.2 mi NNW 9.2 mph - N/A   Mostly Cloudy
10:30 AM 73.4 °F 42.8 °F 33% 29.65 in 6.2 mi NNW 6.9 mph - N/A   Mostly Cloudy
11:00 AM 69 °F 51 °F 43% 29.67 in - SSW 9.2 mph - -  
11:00 AM 69.8 °F 51.8 °F 53% 29.65 in 6.2 mi SSW 9.2 mph - N/A   Mostly Cloudy
11:30 AM 66.2 °F 53.6 °F 64% 29.74 in 6.2 mi SSW 20.7 mph - N/A   Mostly Cloudy
12:00 PM 64 °F 52 °F 56% 29.75 in 16 mi WSW 13.8 mph - -   Haze
12:00 PM 64.4 °F 51.8 °F 64% 29.74 in 6.2 mi WSW 13.8 mph - N/A   Overcast
12:30 PM 64.4 °F 51.8 °F 64% 29.74 in 6.2 mi West 9.2 mph - N/A   Overcast
1:00 PM 64 °F 54 °F 61% 29.75 in - WSW 6.9 mph - -  
1:00 PM 64.4 °F 53.6 °F 68% 29.74 in 6.2 mi WSW 6.9 mph - N/A   Overcast
1:30 PM 64.4 °F 53.6 °F 68% 29.74 in 6.2 mi SSW 8.1 mph - N/A   Overcast
2:00 PM 65 °F 54 °F 58% 29.75 in - WNW 3.5 mph - -  
2:00 PM 64.4 °F 53.6 °F 68% 29.74 in 6.2 mi WNW 3.5 mph - N/A   Overcast
2:30 PM 64.4 °F 55.4 °F 73% 29.74 in 6.2 mi SSW 5.8 mph - N/A Rain Light Rain
3:00 PM 64 °F 55 °F 66% 29.75 in 6 mi West 4.6 mph - - Rain Light Rain
3:00 PM 64.4 °F 55.4 °F 73% 29.74 in 6.2 mi West 4.6 mph - N/A Rain Light Rain
3:30 PM 62.6 °F 55.4 °F 77% 29.74 in 5.6 mi WSW 9.2 mph - N/A Rain Light Rain
4:00 PM 61 °F 56 °F 78% 29.75 in - WSW 11.5 mph - -  
4:00 PM 60.8 °F 55.4 °F 82% 29.74 in 5.6 mi WSW 11.5 mph - N/A Rain Light Rain
4:30 PM 60.8 °F 57.2 °F 88% 29.74 in 5.0 mi WSW 12.7 mph - N/A Rain Light Rain
5:00 PM 59 °F 55 °F 84% 29.77 in - WSW 12.7 mph - -  
5:00 PM 59.0 °F 55.4 °F 88% 29.77 in 5.0 mi WSW 12.7 mph - N/A Rain Light Rain
5:30 PM 59.0 °F 55.4 °F 88% 29.77 in 5.0 mi WSW 11.5 mph - N/A Rain Light Rain
6:00 PM 59 °F 56 °F 85% 29.77 in 9 mi WSW 11.5 mph - - Rain Light Rain
6:00 PM 59.0 °F 55.4 °F 88% 29.77 in 6.2 mi WSW 11.5 mph - N/A Rain Light Rain
6:30 PM 57.2 °F 53.6 °F 88% 29.77 in 3.1 mi SW 12.7 mph - N/A Rain Light Rain Showers
7:00 PM 56 °F 54 °F 90% 29.77 in - West 10.4 mph - -  
7:00 PM 55.4 °F 53.6 °F 94% 29.77 in 6.2 mi West 10.4 mph - N/A   Mostly Cloudy
7:30 PM 57.2 °F 53.6 °F 88% 29.77 in 6.2 mi West 9.2 mph - N/A   Mostly Cloudy
8:00 PM 57 °F 53 °F 82% 29.78 in - West 11.5 mph - -  
8:00 PM 57.2 °F 53.6 °F 88% 29.77 in 6.2 mi West 11.5 mph - N/A   Partly Cloudy
8:30 PM 57.2 °F 53.6 °F 88% 29.77 in 6.2 mi West 11.5 mph - N/A   Partly Cloudy
9:00 PM 57 °F 53 °F 84% 29.80 in 16 mi SSW 12.7 mph - -   Mostly Cloudy
9:00 PM 57.2 °F 53.6 °F 88% 29.80 in 6.2 mi SSW 12.7 mph - N/A   Mostly Cloudy
9:30 PM 57.2 °F 53.6 °F 88% 29.80 in 6.2 mi SSW 11.5 mph - N/A   Scattered Clouds
9:56 PM 57.2 °F 53.6 °F 88% 29.83 in 6.2 mi SSW 11.5 mph - N/A   Mostly Cloudy
10:00 PM 56 °F 53 °F 86% 29.83 in - SSW 12.7 mph - -  
10:00 PM 57.2 °F 53.6 °F 88% 29.83 in 6.2 mi SSW 12.7 mph - N/A   Mostly Cloudy
10:30 PM 55.4 °F 51.8 °F 88% 29.83 in 6.2 mi SSW 12.7 mph - N/A   Mostly Cloudy
10:43 PM 55.4 °F 51.8 °F 88% 29.83 in 6.2 mi SSW 12.7 mph - N/A   Mostly Cloudy
11:00 PM 56 °F 50 °F 75% 29.84 in - South 12.7 mph - -  
11:00 PM 55.4 °F 50.0 °F 82% 29.83 in 6.2 mi South 12.7 mph - N/A   Mostly Cloudy
11:30 PM 53.6 °F 50.0 °F 88% 29.83 in 6.2 mi SSW 12.7 mph - N/A   Scattered Clouds